,,,PA_Meas_PMT16A,,PR_Meas_QMR101_102,,RH_Meas_QMH101,,SR_Meas_QMS101,,TA_Meas_QMH101,,GenWind,,GenWind,
date,time,status,PA,status,PR,status,RH,status,SR,status,TA,status,DirAvg,status,SpdAvg,
2010-08-09, 00:00:05,VALID,1003.61,VALID,0,INVALID,114.99,VALID,0,VALID,23.7796,VALID,349,VALID,0.548437,
2010-08-09, 00:01:05,VALID,1003.62,VALID,0,INVALID,115.028,VALID,0.100563,VALID,23.7,VALID,349,VALID,0.458594,
2010-08-09, 00:02:05,VALID,1003.65,VALID,0,INVALID,115.036,VALID,0,VALID,23.6823,VALID,349,VALID,0.446484,
2010-08-09, 00:03:05,VALID,1003.66,VALID,0,INVALID,115.051,VALID,0,VALID,23.6628,VALID,349,VALID,0.258984,
2010-08-09, 00:04:05,VALID,1003.65,VALID,0,INVALID,115.044,VALID,0,VALID,23.6628,VALID,349,VALID,0.252344,
2010-08-09, 00:05:05,VALID,1003.71,VALID,0,INVALID,115.051,VALID,0,VALID,23.6628,VALID,349,VALID,0.0824219,
2010-08-09, 00:06:05,VALID,1003.72,VALID,0,INVALID,115.059,VALID,0,VALID,23.6646,VALID,349,VALID,0,
2010-08-09, 00:07:05,VALID,1003.74,VALID,0,INVALID,115.089,VALID,0,VALID,23.6239,VALID,349,VALID,0,
2010-08-09, 00:08:05,VALID,1003.75,VALID,0,INVALID,115.082,VALID,0,VALID,23.6239,VALID,349,VALID,0,
2010-08-09, 00:09:05,VALID,1003.77,VALID,0,INVALID,115.066,VALID,0,VALID,23.6628,VALID,349,VALID,0,
2010-08-09, 00:10:05,VALID,1003.79,VALID,0,INVALID,115.082,VALID,0,VALID,23.6434,VALID,349,VALID,0,
2010-08-09, 00:11:05,VALID,1003.83,VALID,0,INVALID,115.089,VALID,0,VALID,23.6628,VALID,349,VALID,0,
2010-08-09, 00:12:05,VALID,1003.82,VALID,0,INVALID,115.059,VALID,0,VALID,23.6628,VALID,349,VALID,0.00273437,
2010-08-09, 00:13:05,VALID,1003.86,VALID,0,INVALID,115.044,VALID,0,VALID,23.7017,VALID,349,VALID,0,
2010-08-09, 00:14:05,VALID,1003.88,VALID,0,INVALID,115.066,VALID,0,VALID,23.6805,VALID,349,VALID,0,
2010-08-09, 00:15:05,VALID,1003.89,VALID,0,INVALID,115.059,VALID,0,VALID,23.6805,VALID,349,VALID,0,
2010-08-09, 00:16:05,VALID,1003.91,VALID,0,INVALID,115.036,VALID,0.100563,VALID,23.7,VALID,349,VALID,0,
2010-08-09, 00:17:05,VALID,1003.95,VALID,0,INVALID,115.044,VALID,0.100563,VALID,23.7407,VALID,349,VALID,0,
2010-08-09, 00:18:05,VALID,1003.98,VALID,0,INVALID,115.036,VALID,0.100563,VALID,23.7389,VALID,349,VALID,0,
2010-08-09, 00:19:05,VALID,1003.99,VALID,0,INVALID,115.028,VALID,0,VALID,23.7796,VALID,349,VALID,0.253125,
2010-08-09, 00:20:05,VALID,1003.99,VALID,0,INVALID,115.028,VALID,0,VALID,23.7583,VALID,349,VALID,0,
2010-08-09, 00:21:05,VALID,1003.99,VALID,0,INVALID,115.036,VALID,0,VALID,23.7601,VALID,349,VALID,0,
2010-08-09, 00:22:05,VALID,1003.96,VALID,0,INVALID,115.051,VALID,0,VALID,23.7389,VALID,349,VALID,0,
2010-08-09, 00:23:05,VALID,1003.97,VALID,0,INVALID,115.059,VALID,0.100563,VALID,23.7407,VALID,349,VALID,0,
2010-08-09, 00:24:05,VALID,1003.98,VALID,0,INVALID,115.051,VALID,0.100563,VALID,23.7407,VALID,349,VALID,0,
2010-08-09, 00:25:05,VALID,1004,VALID,0,INVALID,114.998,VALID,0,VALID,23.7425,VALID,350,VALID,0.241016,
2010-08-09, 00:26:05,VALID,1004.01,VALID,0,INVALID,115.005,VALID,0,VALID,23.723,VALID,354,VALID,0.692187,
2010-08-09, 00:27:05,VALID,1004.01,VALID,0,INVALID,115.021,VALID,0,VALID,23.7035,VALID,355,VALID,0.559375,
2010-08-09, 00:28:05,VALID,1004.03,VALID,0,INVALID,115.013,VALID,0,VALID,23.6841,VALID,355,VALID,0.5375,
2010-08-09, 00:29:05,VALID,1004.04,VALID,0,INVALID,114.998,VALID,0,VALID,23.6434,VALID,355,VALID,0.525391,
2010-08-09, 00:30:05,VALID,1004.06,VALID,0,INVALID,114.967,VALID,0,VALID,23.6452,VALID,355,VALID,0.620313,
2010-08-09, 00:31:05,VALID,1004.03,VALID,0,INVALID,114.921,VALID,0,VALID,23.6452,VALID,355,VALID,0.55,
2010-08-09, 00:32:05,VALID,1004.04,VALID,0,INVALID,114.845,VALID,0,VALID,23.6452,VALID,355,VALID,0.602734,
2010-08-09, 00:33:05,VALID,1004.05,VALID,0,INVALID,114.715,VALID,0,VALID,23.6434,VALID,355,VALID,0.492188,
2010-08-09, 00:34:05,VALID,1004.04,VALID,0,INVALID,114.654,VALID,0,VALID,23.6841,VALID,355,VALID,0.711328,
2010-08-09, 00:35:05,VALID,1004.03,VALID,0,INVALID,114.609,VALID,0,VALID,23.7035,VALID,354,VALID,0.488672,
2010-08-09, 00:36:05,VALID,1004.03,VALID,0,INVALID,114.532,VALID,0,VALID,23.6823,VALID,354,VALID,0.576563,
2010-08-09, 00:37:05,VALID,1004.01,VALID,0,INVALID,114.487,VALID,0,VALID,23.7017,VALID,354,VALID,0.1875,
2010-08-09, 00:38:05,VALID,1004.01,VALID,0,INVALID,114.426,VALID,0,VALID,23.7425,VALID,354,VALID,0,
2010-08-09, 00:39:05,VALID,1003.95,VALID,0,INVALID,114.288,VALID,0,VALID,23.7796,VALID,354,VALID,0,
2010-08-09, 00:40:05,VALID,1003.96,VALID,0,INVALID,114.227,VALID,0,VALID,23.8185,VALID,355,VALID,0.229687,
2010-08-09, 00:41:05,VALID,1003.92,VALID,0,INVALID,114.151,VALID,0,VALID,23.8787,VALID,355,VALID,0.311328,
2010-08-09, 00:42:05,VALID,1003.91,VALID,0,INVALID,114.159,VALID,0,VALID,23.9177,VALID,340,VALID,0.135156,
2010-08-09, 00:43:05,VALID,1003.89,VALID,0,INVALID,114.174,VALID,0,VALID,23.9371,VALID,359,VALID,0.16875,
2010-08-09, 00:44:05,VALID,1003.88,VALID,0,INVALID,114.174,VALID,0,VALID,23.9761,VALID,359,VALID,0.101953,
2010-08-09, 00:45:05,VALID,1003.87,VALID,0,INVALID,114.235,VALID,0,VALID,24.015,VALID,330,VALID,0.00195313,
2010-08-09, 00:46:05,VALID,1003.81,VALID,0,INVALID,114.304,VALID,0,VALID,24.015,VALID,4,VALID,0.558594,
2010-08-09, 00:47:05,VALID,1003.83,VALID,0,INVALID,114.372,VALID,0,VALID,24.0539,VALID,1,VALID,0.0316406,
2010-08-09, 00:48:05,VALID,1003.8,VALID,0,INVALID,114.471,VALID,0,VALID,24.0734,VALID,1,VALID,0.00742187,
2010-08-09, 00:49:05,VALID,1003.81,VALID,0,INVALID,114.563,VALID,0,VALID,24.091,VALID,348,VALID,0.491016,
2010-08-09, 00:50:05,VALID,1003.81,VALID,0,INVALID,114.67,VALID,0,VALID,24.1105,VALID,262,VALID,0.755469,
2010-08-09, 00:51:05,VALID,1003.84,VALID,0,INVALID,114.754,VALID,0,VALID,24.1513,VALID,303,VALID,0.624219,
2010-08-09, 00:52:05,VALID,1003.8,VALID,0,INVALID,114.914,VALID,0,VALID,24.1902,VALID,303,VALID,0.978125,
2010-08-09, 00:53:05,VALID,1003.77,VALID,0,INVALID,115.066,VALID,0,VALID,24.2291,VALID,282,VALID,0.727344,
2010-08-09, 00:54:05,VALID,1003.74,VALID,0,INVALID,115.188,VALID,0,VALID,24.2875,VALID,298,VALID,0.331641,
2010-08-09, 00:55:05,VALID,1003.73,VALID,0,INVALID,115.272,VALID,0,VALID,24.3265,VALID,283,VALID,0.670313,
2010-08-09, 00:56:05,VALID,1003.7,VALID,0,INVALID,115.288,VALID,0,VALID,24.3459,VALID,356,VALID,0.716016,
2010-08-09, 00:57:05,VALID,1003.69,VALID,0,INVALID,115.249,VALID,0,VALID,24.383,VALID,275,VALID,0.499609,
2010-08-09, 00:58:05,VALID,1003.69,VALID,0,INVALID,115.158,VALID,0,VALID,24.422,VALID,279,VALID,1.23086,
2010-08-09, 00:59:05,VALID,1003.72,VALID,0,INVALID,114.96,VALID,0,VALID,24.4822,VALID,295,VALID,0.622656,
2010-08-09, 01:00:05,VALID,1003.69,VALID,0,INVALID,114.822,VALID,0,VALID,24.5212,VALID,292,VALID,0.00820312,
2010-08-09, 01:01:05,VALID,1003.68,VALID,0,INVALID,114.723,VALID,0,VALID,24.5425,VALID,281,VALID,0.616016,
2010-08-09, 01:02:05,VALID,1003.67,VALID,0,INVALID,114.654,VALID,0,VALID,24.5406,VALID,283,VALID,0.164063,
2010-08-09, 01:03:05,VALID,1003.65,VALID,0,INVALID,114.593,VALID,0,VALID,24.5193,VALID,345,VALID,0.617578,
2010-08-09, 01:04:05,VALID,1003.59,VALID,0,INVALID,114.41,VALID,0,VALID,24.5601,VALID,359,VALID,1.41406,
2010-08-09, 01:05:05,VALID,1003.54,VALID,0,INVALID,114.25,VALID,0,VALID,24.5193,VALID,335,VALID,0.133984,
2010-08-09, 01:06:05,VALID,1003.55,VALID,0,INVALID,114.166,VALID,0,VALID,24.5601,VALID,294,VALID,0.378516,
2010-08-09, 01:07:05,VALID,1003.54,VALID,0,INVALID,114.075,VALID,0,VALID,24.5601,VALID,326,VALID,0.116016,
2010-08-09, 01:08:05,VALID,1003.54,VALID,0,INVALID,113.678,VALID,0,VALID,24.5388,VALID,322,VALID,0.282031,
2010-08-09, 01:09:05,VALID,1003.55,VALID,0,INVALID,113.144,VALID,0,VALID,24.5406,VALID,320,VALID,0.171094,
2010-08-09, 01:10:05,VALID,1003.57,VALID,0,INVALID,112.602,VALID,0,VALID,24.5388,VALID,335,VALID,0.339844,
2010-08-09, 01:11:05,VALID,1003.55,VALID,0,INVALID,111.473,VALID,0,VALID,24.5388,VALID,350,VALID,0.664844,
2010-08-09, 01:12:05,VALID,1003.52,VALID,0,INVALID,109.383,VALID,0,VALID,24.5388,VALID,352,VALID,0.477344,
2010-08-09, 01:13:05,VALID,1003.53,VALID,0,VALID,104,VALID,0,VALID,24.5369,VALID,352,VALID,0.121875,
2010-08-09, 01:14:05,VALID,1003.47,VALID,0,VALID,104,VALID,0,VALID,24.5369,VALID,349,VALID,0.735156,
2010-08-09, 01:15:05,VALID,1003.49,VALID,0,VALID,102.792,VALID,0,VALID,24.5388,VALID,344,VALID,0.670703,
2010-08-09, 01:16:05,VALID,1003.47,VALID,0,VALID,101.601,VALID,0,VALID,24.5582,VALID,358,VALID,0.388281,
2010-08-09, 01:17:05,VALID,1003.48,VALID,0,VALID,100.938,VALID,0,VALID,24.5369,VALID,358,VALID,0.107031,
2010-08-09, 01:18:05,VALID,1003.47,VALID,0,VALID,101.357,VALID,0,VALID,24.5406,VALID,356,VALID,0.542578,
2010-08-09, 01:19:05,VALID,1003.48,VALID,0,VALID,101.67,VALID,0,VALID,24.5406,VALID,356,VALID,0.18125,
2010-08-09, 01:20:05,VALID,1003.44,VALID,0,VALID,102.036,VALID,0,VALID,24.4998,VALID,323,VALID,0.258594,
2010-08-09, 01:21:05,VALID,1003.43,VALID,0,VALID,102.448,VALID,0,VALID,24.4804,VALID,291,VALID,0.934375,
2010-08-09, 01:22:05,VALID,1003.41,VALID,0,VALID,101.365,VALID,0,VALID,24.4998,VALID,296,VALID,0.949219,
2010-08-09, 01:23:05,VALID,1003.42,VALID,0,VALID,100.976,VALID,0,VALID,24.4998,VALID,279,VALID,0.537891,
2010-08-09, 01:24:05,VALID,1003.43,VALID,0,VALID,100.816,VALID,0,VALID,24.5193,VALID,288,VALID,0.758203,
2010-08-09, 01:25:05,VALID,1003.44,VALID,0,VALID,100.457,VALID,0,VALID,24.4998,VALID,291,VALID,0.654688,
2010-08-09, 01:26:05,VALID,1003.46,VALID,0,VALID,100.228,VALID,0.100563,VALID,24.5193,VALID,293,VALID,0.327344,
2010-08-09, 01:27:05,VALID,1003.47,VALID,0,VALID,100.579,VALID,0.100563,VALID,24.4998,VALID,291,VALID,1.20273,
2010-08-09, 01:28:05,VALID,1003.47,VALID,0,VALID,103.44,VALID,0,VALID,24.4804,VALID,304,VALID,0.794141,
2010-08-09, 01:29:05,VALID,1003.48,VALID,0,VALID,104,VALID,0,VALID,24.4609,VALID,288,VALID,0.782422,
2010-08-09, 01:30:05,VALID,1003.49,VALID,0,VALID,104,VALID,0.100563,VALID,24.4822,VALID,287,VALID,1.10742,
2010-08-09, 01:31:05,VALID,1003.51,VALID,0,VALID,104,VALID,0,VALID,24.4609,VALID,287,VALID,0.376563,
2010-08-09, 01:32:05,VALID,1003.51,VALID,0,INVALID,109.177,VALID,0,VALID,24.4201,VALID,321,VALID,0.562891,
2010-08-09, 01:33:05,VALID,1003.54,VALID,0,INVALID,109.848,VALID,0,VALID,24.422,VALID,298,VALID,0.578125,
2010-08-09, 01:34:05,VALID,1003.56,VALID,0,INVALID,110.558,VALID,0,VALID,24.3636,VALID,281,VALID,0.230859,
2010-08-09, 01:35:05,VALID,1003.52,VALID,0,INVALID,111.054,VALID,0,VALID,24.3636,VALID,281,VALID,0,
2010-08-09, 01:36:05,VALID,1003.56,VALID,0,INVALID,111.923,VALID,0,VALID,24.3441,VALID,346,VALID,0.626953,
2010-08-09, 01:37:05,VALID,1003.53,VALID,0,INVALID,112.64,VALID,0.100563,VALID,24.3246,VALID,348,VALID,0.667188,
2010-08-09, 01:38:05,VALID,1003.5,VALID,0,INVALID,113.22,VALID,0.100563,VALID,24.2857,VALID,351,VALID,0.75,
2010-08-09, 01:39:05,VALID,1003.51,VALID,0,INVALID,113.472,VALID,0,VALID,24.2662,VALID,357,VALID,0.859375,
2010-08-09, 01:40:05,VALID,1003.53,VALID,0,INVALID,113.724,VALID,0,VALID,24.2078,VALID,359,VALID,0.751953,
2010-08-09, 01:41:05,VALID,1003.53,VALID,0,INVALID,114.006,VALID,0,VALID,24.1884,VALID,355,VALID,0.655859,
2010-08-09, 01:42:05,VALID,1003.53,VALID,0,INVALID,114.128,VALID,0,VALID,24.1494,VALID,354,VALID,0.901953,
2010-08-09, 01:43:05,VALID,1003.51,VALID,0,INVALID,114.281,VALID,0,VALID,24.091,VALID,353,VALID,0.933984,
2010-08-09, 01:44:05,VALID,1003.51,VALID,0,INVALID,114.403,VALID,0,VALID,24.091,VALID,353,VALID,0.817578,
2010-08-09, 01:45:05,VALID,1003.49,VALID,0,INVALID,114.494,VALID,0,VALID,24.0521,VALID,359,VALID,0.754297,
2010-08-09, 01:46:05,VALID,1003.47,VALID,0,INVALID,114.601,VALID,0,VALID,24.0326,VALID,344,VALID,0.691797,
2010-08-09, 01:47:05,VALID,1003.47,VALID,0,INVALID,114.7,VALID,0.100563,VALID,24.0132,VALID,331,VALID,0.757422,
2010-08-09, 01:48:05,VALID,1003.45,VALID,0,INVALID,114.769,VALID,0.100563,VALID,24.0326,VALID,351,VALID,0.675,
2010-08-09, 01:49:05,VALID,1003.44,VALID,0,INVALID,114.784,VALID,0.100563,VALID,23.9919,VALID,346,VALID,0.797656,
2010-08-09, 01:50:05,VALID,1003.44,VALID,0,INVALID,114.777,VALID,0,VALID,24.0132,VALID,336,VALID,0.645312,
2010-08-09, 01:51:05,VALID,1003.43,VALID,0,INVALID,114.792,VALID,0,VALID,24.0326,VALID,352,VALID,0.622656,
2010-08-09, 01:52:05,VALID,1003.45,VALID,0,INVALID,114.784,VALID,0,VALID,24.0326,VALID,345,VALID,0.576953,
2010-08-09, 01:53:05,VALID,1003.41,VALID,0,INVALID,114.738,VALID,0.100563,VALID,24.0308,VALID,351,VALID,0.732422,
2010-08-09, 01:54:05,VALID,1003.43,VALID,0,INVALID,114.738,VALID,0.100563,VALID,24.0716,VALID,336,VALID,0.009375,
2010-08-09, 01:55:05,VALID,1003.41,VALID,0,INVALID,114.685,VALID,0,VALID,24.0521,VALID,336,VALID,0,
2010-08-09, 01:56:05,VALID,1003.37,VALID,0,INVALID,114.677,VALID,0,VALID,24.0326,VALID,336,VALID,0,
2010-08-09, 01:57:05,VALID,1003.34,VALID,0,INVALID,114.654,VALID,0,VALID,24.0326,VALID,336,VALID,0.174219,
2010-08-09, 01:58:05,VALID,1003.36,VALID,0,INVALID,114.662,VALID,0,VALID,24.0326,VALID,334,VALID,0.0722656,
2010-08-09, 01:59:05,VALID,1003.34,VALID,0,INVALID,114.723,VALID,0,VALID,24.0132,VALID,315,VALID,0.208984,
2010-08-09, 02:00:05,VALID,1003.36,VALID,0,INVALID,114.731,VALID,0,VALID,24.0132,VALID,311,VALID,0.113281,
2010-08-09, 02:01:05,VALID,1003.37,VALID,0,INVALID,114.731,VALID,0,VALID,24.015,VALID,311,VALID,0,
2010-08-09, 02:02:05,VALID,1003.35,VALID,0,INVALID,114.754,VALID,0,VALID,24.015,VALID,311,VALID,0.0195313,
2010-08-09, 02:03:05,VALID,1003.34,VALID,0,INVALID,114.769,VALID,0,VALID,23.9742,VALID,311,VALID,0.0710938,
2010-08-09, 02:04:05,VALID,1003.32,VALID,0,INVALID,114.799,VALID,0,VALID,23.9937,VALID,343,VALID,0.313672,
2010-08-09, 02:05:05,VALID,1003.3,VALID,0,INVALID,114.822,VALID,0,VALID,23.9742,VALID,282,VALID,0.398828,
2010-08-09, 02:06:05,VALID,1003.27,VALID,0,INVALID,114.838,VALID,0,VALID,23.9937,VALID,291,VALID,0.180078,
2010-08-09, 02:07:05,VALID,1003.24,VALID,0,INVALID,114.845,VALID,0,VALID,23.9919,VALID,291,VALID,0.109766,
2010-08-09, 02:08:05,VALID,1003.27,VALID,0,INVALID,114.784,VALID,0,VALID,24.0132,VALID,340,VALID,0.353906,
2010-08-09, 02:09:05,VALID,1003.27,VALID,0,INVALID,114.754,VALID,0,VALID,24.0132,VALID,346,VALID,0.480078,
2010-08-09, 02:10:04,VALID,1003.24,VALID,0,INVALID,114.693,VALID,0,VALID,24.015,VALID,346,VALID,0.467969,
2010-08-09, 02:11:04,VALID,1003.24,VALID,0,INVALID,114.632,VALID,0,VALID,24.015,VALID,325,VALID,0.818359,
2010-08-09, 02:12:04,VALID,1003.21,VALID,0,INVALID,114.548,VALID,0,VALID,24.015,VALID,342,VALID,0.289063,
2010-08-09, 02:13:04,VALID,1003.19,VALID,0,INVALID,114.487,VALID,0,VALID,24.0345,VALID,343,VALID,0.317578,
2010-08-09, 02:14:04,VALID,1003.18,VALID,0,INVALID,114.395,VALID,0,VALID,24.0345,VALID,343,VALID,0.202734,
2010-08-09, 02:15:04,VALID,1003.17,VALID,0,INVALID,114.288,VALID,0,VALID,23.9937,VALID,343,VALID,0.0988281,
2010-08-09, 02:16:04,VALID,1003.17,VALID,0,INVALID,114.273,VALID,0,VALID,24.0132,VALID,343,VALID,0.192188,
2010-08-09, 02:17:04,VALID,1003.17,VALID,0,INVALID,114.212,VALID,0,VALID,24.015,VALID,343,VALID,0,
2010-08-09, 02:18:04,VALID,1003.14,VALID,0,INVALID,114.212,VALID,0,VALID,24.0168,VALID,343,VALID,0.0046875,
2010-08-09, 02:19:04,VALID,1003.13,VALID,0,INVALID,114.242,VALID,0,VALID,24.015,VALID,343,VALID,0.261328,
2010-08-09, 02:20:04,VALID,1003.12,VALID,0,INVALID,114.265,VALID,0,VALID,24.015,VALID,343,VALID,0,
2010-08-09, 02:21:04,VALID,1003.1,VALID,0,INVALID,114.258,VALID,0,VALID,23.9955,VALID,354,VALID,0.855469,
2010-08-09, 02:22:04,VALID,1003.08,VALID,0,INVALID,114.273,VALID,0,VALID,24.0363,VALID,351,VALID,0.633594,
2010-08-09, 02:23:04,VALID,1003.05,VALID,0,INVALID,114.235,VALID,0,VALID,24.0363,VALID,350,VALID,0.639453,
2010-08-09, 02:24:04,VALID,1003.02,VALID,0,INVALID,114.273,VALID,0,VALID,24.0345,VALID,348,VALID,0.406641,
2010-08-09, 02:25:04,VALID,1003.02,VALID,0,INVALID,114.197,VALID,0,VALID,24.0326,VALID,344,VALID,0.480469,
2010-08-09, 02:26:04,VALID,1003,VALID,0,INVALID,114.128,VALID,0,VALID,24.0734,VALID,340,VALID,0.305859,
2010-08-09, 02:27:04,VALID,1002.97,VALID,0,INVALID,114.113,VALID,0,VALID,24.0521,VALID,340,VALID,0.0105469,
2010-08-09, 02:28:04,VALID,1002.95,VALID,0,INVALID,114.098,VALID,0.100563,VALID,24.0326,VALID,340,VALID,0.257031,
2010-08-09, 02:29:04,VALID,1002.93,VALID,0,INVALID,114.151,VALID,0,VALID,24.0326,VALID,302,VALID,0.483594,
2010-08-09, 02:30:04,VALID,1002.92,VALID,0,INVALID,114.204,VALID,0,VALID,24.0132,VALID,302,VALID,0.00585938,
2010-08-09, 02:31:04,VALID,1002.92,VALID,0,INVALID,114.212,VALID,0,VALID,23.9937,VALID,302,VALID,0,
2010-08-09, 02:32:04,VALID,1002.91,VALID,0,INVALID,114.25,VALID,0,VALID,23.9742,VALID,346,VALID,0.545313,
2010-08-09, 02:33:04,VALID,1002.91,VALID,0,INVALID,114.174,VALID,0,VALID,23.9353,VALID,346,VALID,0.616016,
2010-08-09, 02:34:04,VALID,1002.91,VALID,0,INVALID,114.235,VALID,0.100563,VALID,23.8575,VALID,353,VALID,0.605859,
2010-08-09, 02:35:04,VALID,1002.88,VALID,0,INVALID,114.441,VALID,0,VALID,23.7991,VALID,353,VALID,0.396484,
2010-08-09, 02:36:04,VALID,1002.86,VALID,0,INVALID,114.632,VALID,0,VALID,23.7796,VALID,354,VALID,0.292969,
2010-08-09, 02:37:04,VALID,1002.86,VALID,0,INVALID,114.799,VALID,0,VALID,23.7601,VALID,327,VALID,0.382813,
2010-08-09, 02:38:04,VALID,1002.83,VALID,0,INVALID,114.883,VALID,0,VALID,23.7601,VALID,329,VALID,0.272266,
2010-08-09, 02:39:04,VALID,1002.85,VALID,0,INVALID,114.944,VALID,0.100563,VALID,23.7601,VALID,333,VALID,0.00859375,
2010-08-09, 02:40:04,VALID,1002.85,VALID,0,INVALID,115.013,VALID,0,VALID,23.7583,VALID,348,VALID,0.117578,
2010-08-09, 02:41:04,VALID,1002.84,VALID,0,INVALID,115.036,VALID,0,VALID,23.7796,VALID,347,VALID,0.259375,
2010-08-09, 02:42:04,VALID,1002.86,VALID,0,INVALID,115.059,VALID,0,VALID,23.7991,VALID,330,VALID,0.251172,
2010-08-09, 02:43:04,VALID,1002.85,VALID,0,INVALID,115.051,VALID,0,VALID,23.8203,VALID,329,VALID,0,
2010-08-09, 02:44:04,VALID,1002.89,VALID,0,INVALID,115.051,VALID,0,VALID,23.8185,VALID,330,VALID,0.273828,
2010-08-09, 02:45:04,VALID,1002.9,VALID,0,INVALID,115.059,VALID,0,VALID,23.8185,VALID,332,VALID,0.226953,
2010-08-09, 02:46:04,VALID,1002.88,VALID,0,INVALID,115.036,VALID,0,VALID,23.838,VALID,2,VALID,0.683594,
2010-08-09, 02:47:04,VALID,1002.93,VALID,0,INVALID,114.967,VALID,0,VALID,23.7991,VALID,345,VALID,0.600391,
2010-08-09, 02:48:04,VALID,1002.91,VALID,0,INVALID,114.899,VALID,0,VALID,23.7601,VALID,345,VALID,0.567969,
2010-08-09, 02:49:04,VALID,1002.94,VALID,0,INVALID,114.929,VALID,0,VALID,23.7407,VALID,344,VALID,0.35625,
2010-08-09, 02:50:04,VALID,1002.92,VALID,0,INVALID,114.929,VALID,0,VALID,23.7035,VALID,344,VALID,0.391406,
2010-08-09, 02:51:04,VALID,1002.93,VALID,0,INVALID,114.998,VALID,0,VALID,23.6823,VALID,345,VALID,0.489844,
2010-08-09, 02:52:04,VALID,1002.93,VALID,0,INVALID,115.074,VALID,0,VALID,23.661,VALID,345,VALID,0.154297,
2010-08-09, 02:53:04,VALID,1002.91,VALID,0,INVALID,115.074,VALID,0,VALID,23.6628,VALID,345,VALID,0.317187,
2010-08-09, 02:54:04,VALID,1002.92,VALID,0,INVALID,115.127,VALID,0,VALID,23.6434,VALID,345,VALID,0.557031,
2010-08-09, 02:55:04,VALID,1002.91,VALID,0,INVALID,115.105,VALID,0.100563,VALID,23.5832,VALID,346,VALID,0.774219,
2010-08-09, 02:56:04,VALID,1002.9,VALID,0,INVALID,115.105,VALID,0.100563,VALID,23.6044,VALID,352,VALID,0.732031,
2010-08-09, 02:57:04,VALID,1002.88,VALID,0,INVALID,115.112,VALID,0,VALID,23.5637,VALID,354,VALID,0.933203,
2010-08-09, 02:58:04,VALID,1002.85,VALID,0,INVALID,115.105,VALID,0,VALID,23.5868,VALID,350,VALID,0.867969,
2010-08-09, 02:59:04,VALID,1002.87,VALID,0,INVALID,115.082,VALID,0,VALID,23.5868,VALID,352,VALID,0.949219,
2010-08-09, 03:00:04,VALID,1002.85,VALID,0,INVALID,115.028,VALID,0,VALID,23.6257,VALID,358,VALID,0.909766,
2010-08-09, 03:01:04,VALID,1002.86,VALID,0,INVALID,115.074,VALID,0,VALID,23.6221,VALID,342,VALID,0.824219,
2010-08-09, 03:02:04,VALID,1002.86,VALID,0,INVALID,115.044,VALID,0,VALID,23.7017,VALID,347,VALID,0.905859,
2010-08-09, 03:03:04,VALID,1002.9,VALID,0,INVALID,115.066,VALID,0.100563,VALID,23.7407,VALID,341,VALID,0.369922,
2010-08-09, 03:04:04,VALID,1002.9,VALID,0,INVALID,115.135,VALID,0,VALID,23.8009,VALID,341,VALID,0.262109,
2010-08-09, 03:05:04,VALID,1002.92,VALID,0,INVALID,115.089,VALID,0,VALID,23.838,VALID,359,VALID,0.684375,
2010-08-09, 03:06:04,VALID,1002.91,VALID,0,INVALID,115.166,VALID,0,VALID,23.8964,VALID,307,VALID,0.809375,
2010-08-09, 03:07:04,VALID,1002.9,VALID,0,INVALID,115.211,VALID,0,VALID,23.9548,VALID,327,VALID,0.45625,
2010-08-09, 03:08:04,VALID,1002.89,VALID,0,INVALID,115.272,VALID,0,VALID,24.015,VALID,355,VALID,0.421484,
2010-08-09, 03:09:04,VALID,1002.91,VALID,0,INVALID,115.257,VALID,0,VALID,24.0345,VALID,341,VALID,0.739453,
2010-08-09, 03:10:04,VALID,1002.9,VALID,0,INVALID,115.272,VALID,0,VALID,24.0521,VALID,339,VALID,0.487109,
2010-08-09, 03:11:04,VALID,1002.94,VALID,0,INVALID,115.219,VALID,0,VALID,24.0521,VALID,337,VALID,0.210938,
2010-08-09, 03:12:04,VALID,1002.91,VALID,0,INVALID,115.15,VALID,0,VALID,24.0716,VALID,349,VALID,0.528906,
2010-08-09, 03:13:04,VALID,1002.93,VALID,0,INVALID,115.12,VALID,0,VALID,24.0716,VALID,341,VALID,0.109375,
2010-08-09, 03:14:04,VALID,1002.93,VALID,0,INVALID,115.066,VALID,0,VALID,24.0716,VALID,339,VALID,0.355859,
2010-08-09, 03:15:04,VALID,1002.95,VALID,0,INVALID,115.005,VALID,0,VALID,24.0521,VALID,333,VALID,0.184375,
2010-08-09, 03:16:04,VALID,1002.94,VALID,0,INVALID,114.967,VALID,0,VALID,24.0521,VALID,355,VALID,1.15977,
2010-08-09, 03:17:04,VALID,1002.96,VALID,0,INVALID,114.944,VALID,0,VALID,24.0929,VALID,359,VALID,1.02109,
2010-08-09, 03:18:04,VALID,1002.94,VALID,0,INVALID,114.883,VALID,0,VALID,24.0521,VALID,345,VALID,0.694531,
2010-08-09, 03:19:04,VALID,1002.91,VALID,0,INVALID,114.838,VALID,0,VALID,24.0716,VALID,350,VALID,0.769531,
2010-08-09, 03:20:04,VALID,1002.91,VALID,0,INVALID,114.754,VALID,0,VALID,24.0929,VALID,348,VALID,0.856641,
2010-08-09, 03:21:04,VALID,1002.93,VALID,0,INVALID,114.715,VALID,0,VALID,24.0929,VALID,348,VALID,0.669531,
2010-08-09, 03:22:04,VALID,1002.96,VALID,0,INVALID,114.662,VALID,0,VALID,24.0716,VALID,353,VALID,1.1207,
2010-08-09, 03:23:04,VALID,1002.99,VALID,0,INVALID,114.677,VALID,0,VALID,24.0716,VALID,345,VALID,0.940234,
2010-08-09, 03:24:04,VALID,1003.02,VALID,0,INVALID,114.639,VALID,0,VALID,24.091,VALID,350,VALID,0.872266,
2010-08-09, 03:25:04,VALID,1003.05,VALID,0,INVALID,114.654,VALID,0,VALID,24.1105,VALID,350,VALID,0.935156,
2010-08-09, 03:26:04,VALID,1003.09,VALID,0,INVALID,114.647,VALID,0,VALID,24.1105,VALID,346,VALID,0.611719,
2010-08-09, 03:27:04,VALID,1003.12,VALID,0,INVALID,114.616,VALID,0,VALID,24.1513,VALID,347,VALID,0.811328,
2010-08-09, 03:28:04,VALID,1003.15,VALID,0,INVALID,114.586,VALID,0,VALID,24.1494,VALID,346,VALID,0.782031,
2010-08-09, 03:29:04,VALID,1003.17,VALID,0,INVALID,114.647,VALID,0,VALID,24.1494,VALID,351,VALID,0.937891,
2010-08-09, 03:30:04,VALID,1003.15,VALID,0,INVALID,114.624,VALID,0,VALID,24.1902,VALID,336,VALID,0.892578,
2010-08-09, 03:31:04,VALID,1003.17,VALID,0,INVALID,114.578,VALID,0,VALID,24.1902,VALID,357,VALID,1.15859,
2010-08-09, 03:32:04,VALID,1003.15,VALID,0,INVALID,114.525,VALID,0,VALID,24.1884,VALID,350,VALID,1.13437,
2010-08-09, 03:33:04,VALID,1003.14,VALID,0,INVALID,114.456,VALID,0,VALID,24.1884,VALID,343,VALID,1.28398,
2010-08-09, 03:34:04,VALID,1003.15,VALID,0,INVALID,114.41,VALID,0,VALID,24.1884,VALID,352,VALID,0.753516,
2010-08-09, 03:35:04,VALID,1003.18,VALID,0,INVALID,114.334,VALID,0,VALID,24.2078,VALID,347,VALID,0.838281,
2010-08-09, 03:36:04,VALID,1003.18,VALID,0,INVALID,114.281,VALID,0,VALID,24.2291,VALID,339,VALID,0.896094,
2010-08-09, 03:37:04,VALID,1003.17,VALID,0,INVALID,114.296,VALID,0,VALID,24.2291,VALID,350,VALID,0.742578,
2010-08-09, 03:38:04,VALID,1003.18,VALID,0,INVALID,114.212,VALID,0,VALID,24.2273,VALID,344,VALID,0.68125,
2010-08-09, 03:39:04,VALID,1003.15,VALID,0,INVALID,114.25,VALID,0,VALID,24.2681,VALID,360,VALID,1.18438,
2010-08-09, 03:40:04,VALID,1003.15,VALID,0,INVALID,114.181,VALID,0,VALID,24.2681,VALID,355,VALID,1.07617,
2010-08-09, 03:41:04,VALID,1003.12,VALID,0,INVALID,114.151,VALID,0,VALID,24.2662,VALID,346,VALID,0.837109,